Location: Fort Wayne
(41.1310°N, 85.1290°W)
Time: 23:06:57
(UTC-04:00)

Amateur Radio Satellites - All Passes

Search period start: 27 August 2014 22:36
Search period end: 28 August 2014 22:36
Location: Fort Wayne, 41.1310°N, 85.1290°W

Satellite Date Start Highest point End Downlink Frequencies (MHz)
Time Altitude Azimuth
MaSat-1 27 Aug 23:03:37 23:06:10 14° 45° (NE) 23:08:35 437.345 MHz
Saudisat 1A 27 Aug 23:23:02 23:25:51 17° 110° (ESE) 23:28:40 436.775 MHz
UKube-1 27 Aug 23:47:22 23:48:05 10° 270° (W) 23:48:49 145.840 MHz, 145.915 MHz
Oscar 11 27 Aug 23:55:18 23:57:34 14° 269° (W) 23:59:52 145.825 FM, Beacon 2401.500 USB
KITSAT 1 28 Aug 00:02:05 00:08:49 30° 106° (ESE) 00:15:34 435.175 FM
FUNcube-1 28 Aug 00:10:46 00:14:04 23° 266° (W) 00:17:25 145.950 - 145.970 MHz USB
MaSat-1 28 Aug 00:39:17 00:43:59 77° 247° (WSW) 00:48:00 437.345 MHz
Saudisat 1A 28 Aug 01:00:43 01:05:01 51° 307° (NW) 01:09:21 436.775 MHz
PCSat 28 Aug 01:44:25 01:46:00 11° 36° (NE) 01:47:34 145.825 MHz
KITSAT 1 28 Aug 01:55:41 02:03:41 62° 305° (NW) 02:11:43 435.175 FM
Oscar 19 28 Aug 02:00:23 02:02:55 14° 90° (E) 02:05:26 437.125 CW, 437.150 USB
Oscar 16 28 Aug 02:33:06 02:37:38 30° 96° (E) 02:42:08 437.025 USB, Beacon 2401.1428
Uribyol 2 28 Aug 02:36:17 02:38:49 14° 90° (E) 02:41:22 436.500 FM
AO-Echo 28 Aug 02:51:59 02:55:16 19° 93° (E) 02:58:33 ?
AO-27 28 Aug 02:52:45 02:56:24 19° 93° (E) 03:00:03 436.795 MHz FM
Sapphire 28 Aug 02:55:46 03:00:34 31° 50° (NE) 03:05:21 437.095 MHz 1200 baud AX-25 AFSK
Gurwin Techsat 1B 28 Aug 03:05:23 03:06:16 10° 88° (E) 03:07:09 435.225 FM
PCSat 28 Aug 03:25:19 03:30:40 55° 57° (ENE) 03:35:58 145.825 MHz
Oscar 19 28 Aug 03:37:34 03:42:46 72° 286° (WNW) 03:47:55 437.125 CW, 437.150 USB
JAS-1B 28 Aug 03:47:30 03:54:17 53° 98° (E) 04:00:06 435.800 - 435.900 CW/SSB
KITSAT 1 28 Aug 03:55:27 04:00:53 19° 330° (NNW) 04:06:20 435.175 FM
TMSAT-1 28 Aug 03:56:03 04:00:23 25° 94° (E) 04:04:41 436.925 FM
OPAL 28 Aug 03:56:36 04:00:03 19° 60° (ENE) 04:03:31 ?
ITAMSAT 1 28 Aug 04:02:48 04:08:01 87° 104° (ESE) 04:13:12 435.822 SSB
Oscar 16 28 Aug 04:12:19 04:16:58 34° 292° (WNW) 04:21:35 437.025 USB, Beacon 2401.1428
Uribyol 2 28 Aug 04:13:37 04:18:48 71° 286° (WNW) 04:23:58 436.500 FM
AO-Echo 28 Aug 04:29:49 04:34:16 43° 289° (WNW) 04:38:41 ?
SO-50 28 Aug 04:30:52 04:34:08 20° 111° (ESE) 04:37:27 436.795 FM
AO-27 28 Aug 04:31:11 04:36:12 51° 289° (WNW) 04:41:12 436.795 MHz FM
Sapphire 28 Aug 04:39:02 04:44:05 40° 249° (WSW) 04:49:05 437.095 MHz 1200 baud AX-25 AFSK
Gurwin Techsat 1B 28 Aug 04:41:35 04:46:56 90° 118° (ESE) 04:52:14 435.225 FM
AO-7 28 Aug 04:55:08 05:01:40 25° 94° (E) 05:08:07 29.400 - 29.500 MHz
PCSat 28 Aug 05:09:42 05:13:38 21° 254° (WSW) 05:17:33 145.825 MHz
Uosat F 28 Aug 05:17:38 05:21:52 27° 96° (E) 05:26:05 435.120 FM
OPAL 28 Aug 05:33:31 05:38:27 57° 257° (WSW) 05:43:30 ?
TMSAT-1 28 Aug 05:35:29 05:40:25 41° 291° (WNW) 05:45:20 436.925 FM
JAS-1B 28 Aug 05:38:49 05:44:23 26° 302° (WNW) 05:49:21 435.800 - 435.900 CW/SSB
ITAMSAT 1 28 Aug 05:44:35 05:46:46 13° 301° (WNW) 05:48:56 435.822 SSB
KITSAT 1 28 Aug 05:59:04 06:00:24 10° 1° (N) 06:01:43 435.175 FM
SO-50 28 Aug 06:10:04 06:14:21 44° 308° (NW) 06:18:46 436.795 FM
Gurwin Techsat 1B 28 Aug 06:23:56 06:26:07 13° 302° (WNW) 06:28:17 435.225 FM
UOSAT-12 28 Aug 06:46:03 06:50:17 37° 115° (ESE) 06:54:36 437.025 FM, 437.400 FM
Hamsat 28 Aug 06:46:46 06:50:04 21° 93° (E) 06:53:21 145.90 MHz
AO-7 28 Aug 06:46:50 06:55:04 71° 292° (WNW) 07:03:15 29.400 - 29.500 MHz
Uosat F 28 Aug 06:56:11 07:00:41 34° 292° (WNW) 07:05:09 435.120 FM
STRAND 1 28 Aug 07:12:31 07:17:25 51° 71° (ENE) 07:22:21 ?
JAS-2 28 Aug 07:33:33 07:38:41 57° 101° (E) 07:44:07 435.800 - 435.900 CW/SSB, 435.910 FM
Saudisat 1A 28 Aug 07:48:51 07:51:48 17° 42° (NE) 07:54:44 436.775 MHz
KITSAT 1 28 Aug 07:54:16 07:59:51 20° 31° (NNE) 08:05:24 435.175 FM
SO-67 28 Aug 08:06:03 08:08:38 19° 94° (E) 08:11:12 435.3500 MHz FM
RS-15 28 Aug 08:12:23 08:22:12 38° 107° (ESE) 08:31:50 29.354 - 29.394 USB, Beacon 29.352 USB
Hamsat 28 Aug 08:22:09 08:26:06 34° 289° (WNW) 08:30:00 145.90 MHz
UOSAT-12 28 Aug 08:26:29 08:30:30 28° 313° (NW) 08:34:35 437.025 FM, 437.400 FM
AO-7 28 Aug 08:41:43 08:46:24 17° 312° (NW) 08:51:04 29.400 - 29.500 MHz
STRAND 1 28 Aug 08:53:21 08:56:53 19° 267° (W) 09:00:27 ?
JAS-2 28 Aug 09:20:00 09:23:25 18° 297° (WNW) 09:26:56 435.800 - 435.900 CW/SSB, 435.910 FM
Saudisat 1A 28 Aug 09:27:26 09:31:50 66° 240° (WSW) 09:36:11 436.775 MHz
SO-67 28 Aug 09:38:52 09:41:37 22° 290° (WNW) 09:44:22 435.3500 MHz FM
HO-68 28 Aug 09:40:45 09:46:20 24° 93° (E) 09:51:52 435.675 MHz FM
KITSAT 1 28 Aug 09:48:54 09:56:58 65° 55° (NE) 10:04:57 435.175 FM
UKube-1 28 Aug 09:57:49 09:59:15 11° 91° (E) 10:00:42 145.840 MHz, 145.915 MHz
RS-15 28 Aug 10:23:03 10:33:58 62° 309° (NW) 10:44:48 29.354 - 29.394 USB, Beacon 29.352 USB
HO-68 28 Aug 11:27:26 11:34:30 64° 291° (WNW) 11:41:32 435.675 MHz FM
UKube-1 28 Aug 11:31:34 11:35:51 62° 286° (WNW) 11:40:08 145.840 MHz, 145.915 MHz
Oscar 11 28 Aug 11:40:31 11:44:54 77° 284° (WNW) 11:49:15 145.825 FM, Beacon 2401.500 USB
KITSAT 1 28 Aug 11:45:11 11:51:45 28° 255° (WSW) 11:58:17 435.175 FM
AO-40 28 Aug 11:55:35 03:31:39 40° 183° (S) 12:21:11 Beacon 2401.320
FUNcube-1 28 Aug 11:58:30 12:02:59 66° 101° (E) 12:07:32 145.950 - 145.970 MHz USB
ISS 28 Aug 12:12:16 12:15:25 42° 138° (SE) 12:18:36 145.800 FM
RS-15 28 Aug 12:40:42 12:49:08 24° 339° (NNW) 12:57:37 29.354 - 29.394 USB, Beacon 29.352 USB
JAS-1B 28 Aug 12:45:14 12:49:04 13° 49° (NE) 12:52:45 435.800 - 435.900 CW/SSB
SO-50 28 Aug 13:01:30 13:05:19 23° 44° (NE) 13:09:10 436.795 FM
Oscar 19 28 Aug 13:16:49 13:20:36 21° 64° (ENE) 13:24:24 437.125 CW, 437.150 USB
HO-68 28 Aug 13:18:00 13:20:50 13° 310° (NW) 13:23:40 435.675 MHz FM
FUNcube-1 28 Aug 13:36:44 13:38:51 13° 297° (WNW) 13:40:59 145.950 - 145.970 MHz USB
ITAMSAT 1 28 Aug 13:43:49 13:47:04 17° 61° (ENE) 13:50:18 435.822 SSB
ISS 28 Aug 13:49:19 13:52:15 28° 336° (NNW) 13:55:12 145.800 FM
Oscar 16 28 Aug 13:49:55 13:54:45 43° 70° (ENE) 13:59:38 437.025 USB, Beacon 2401.1428
Uribyol 2 28 Aug 13:53:43 13:57:35 22° 64° (ENE) 14:01:28 436.500 FM
AO-Echo 28 Aug 14:04:35 14:08:47 27° 67° (ENE) 14:12:54 ?
AO-27 28 Aug 14:10:41 14:15:08 30° 67° (ENE) 14:19:35 436.795 MHz FM
Gurwin Techsat 1B 28 Aug 14:24:57 14:28:33 19° 62° (ENE) 14:32:09 435.225 FM
MaSat-1 28 Aug 14:26:40 14:31:18 48° 109° (ESE) 14:36:16 437.345 MHz
JAS-1B 28 Aug 14:28:24 14:37:51 55° 68° (ENE) 14:46:26 435.800 - 435.900 CW/SSB
SO-50 28 Aug 14:41:30 14:46:09 52° 242° (WSW) 14:50:51 436.795 FM
Oscar 19 28 Aug 14:54:35 14:59:34 50° 260° (W) 15:04:36 437.125 CW, 437.150 USB
RS-15 28 Aug 14:58:49 15:06:52 22° 15° (NNE) 15:15:02 29.354 - 29.394 USB, Beacon 29.352 USB
PANSAT 28 Aug 15:15:17 15:16:51 12° 176° (S) 15:18:26 not established
UOSAT-12 28 Aug 15:15:34 15:19:53 34° 49° (NE) 15:24:09 437.025 FM, 437.400 FM
TMSAT-1 28 Aug 15:16:38 15:21:30 39° 69° (ENE) 15:26:23 436.925 FM
ITAMSAT 1 28 Aug 15:20:55 15:26:02 63° 258° (WSW) 15:31:10 435.822 SSB
ISS 28 Aug 15:28:00 15:29:49 14° 356° (N) 15:31:39 145.800 FM
Oscar 16 28 Aug 15:30:15 15:34:16 23° 266° (W) 15:38:20 437.025 USB, Beacon 2401.1428
Uribyol 2 28 Aug 15:31:47 15:36:44 47° 261° (W) 15:41:43 436.500 FM
AO-Echo 28 Aug 15:42:47 15:47:25 35° 263° (W) 15:51:57 ?
AO-27 28 Aug 15:49:53 15:54:32 34° 263° (W) 15:59:13 436.795 MHz FM
AO-7 28 Aug 15:53:58 16:01:19 37° 59° (ENE) 16:08:40 29.400 - 29.500 MHz
Gurwin Techsat 1B 28 Aug 16:02:48 16:08:02 59° 259° (W) 16:13:17 435.225 FM
MaSat-1 28 Aug 16:04:35 16:08:38 24° 308° (NW) 16:12:51 437.345 MHz
JAS-1B 28 Aug 16:19:17 16:28:21 41° 264° (W) 16:36:49 435.800 - 435.900 CW/SSB
Uosat F 28 Aug 16:30:46 16:35:22 38° 69° (ENE) 16:39:59 435.120 FM
PANSAT 28 Aug 16:55:25 16:56:15 11° 189° (S) 16:57:05 not established
UOSAT-12 28 Aug 16:55:51 16:59:57 30° 246° (WSW) 17:04:00 437.025 FM, 437.400 FM
TMSAT-1 28 Aug 16:57:08 17:01:31 26° 265° (W) 17:05:54 436.925 FM
ISS 28 Aug 17:05:08 17:07:33 18° 16° (NNE) 17:09:59 145.800 FM
RS-15 28 Aug 17:11:59 17:22:42 52° 47° (NE) 17:33:45 29.354 - 29.394 USB, Beacon 29.352 USB
Oscar 10/S400 28 Aug 17:35:21 17:51:04 28° 145° (SE) 18:10:26 145.825 - 145.975 CW/USB, Beacon 145.810 USB
Sapphire 28 Aug 17:38:10 17:42:35 26° 108° (ESE) 17:47:01 437.095 MHz 1200 baud AX-25 AFSK
Hamsat 28 Aug 17:40:53 17:43:30 16° 65° (ENE) 17:46:09 145.90 MHz
OPAL 28 Aug 17:43:29 17:48:20 37° 100° (E) 17:53:08 ?
AO-7 28 Aug 17:45:41 17:53:47 54° 258° (WSW) 18:01:55 29.400 - 29.500 MHz
JAS-2 28 Aug 17:46:35 17:51:30 26° 66° (ENE) 17:56:02 435.800 - 435.900 CW/SSB, 435.910 FM
PCSat 28 Aug 18:06:55 18:12:07 51° 113° (ESE) 18:17:22 145.825 MHz
Uosat F 28 Aug 18:10:11 18:14:14 25° 265° (W) 18:18:19 435.120 FM
ISS 28 Aug 18:41:24 18:44:45 74° 35° (NE) 18:48:04 145.800 FM
Hamsat 28 Aug 19:14:55 19:19:03 48° 261° (W) 19:23:16 145.90 MHz
Sapphire 28 Aug 19:20:36 19:25:44 44° 306° (NW) 19:30:56 437.095 MHz 1200 baud AX-25 AFSK
OPAL 28 Aug 19:22:38 19:27:02 28° 296° (WNW) 19:31:26 ?
STRAND 1 28 Aug 19:24:19 19:27:35 17° 92° (E) 19:30:51 ?
RS-15 28 Aug 19:24:34 19:35:04 51° 249° (WSW) 19:46:00 29.354 - 29.394 USB, Beacon 29.352 USB
JAS-2 28 Aug 19:30:17 19:36:24 48° 260° (W) 19:41:52 435.800 - 435.900 CW/SSB, 435.910 FM
PCSat 28 Aug 19:51:21 19:55:49 26° 312° (NW) 20:00:18 145.825 MHz
HO-68 28 Aug 20:10:43 20:15:30 20° 55° (NE) 20:20:17 435.675 MHz FM
SO-67 28 Aug 20:10:56 20:14:23 70° 259° (W) 20:17:52 435.3500 MHz FM
ISS 28 Aug 20:19:32 20:21:04 13° 230° (SW) 20:22:35 145.800 FM
UKube-1 28 Aug 20:54:08 20:55:29 11° 61° (ENE) 20:56:50 145.840 MHz, 145.915 MHz
STRAND 1 28 Aug 21:02:08 21:07:07 56° 288° (WNW) 21:12:06 ?
HO-68 28 Aug 21:55:10 22:02:20 85° 254° (WSW) 22:09:31 435.675 MHz FM
UKube-1 28 Aug 22:26:45 22:31:05 73° 257° (WSW) 22:35:26 145.840 MHz, 145.915 MHz
